This is the latest recevied weather packets stored in our database for station/object KJ6LNH-1. If no packets are shown the sender has not sent any weather packets the latest 10 day(s).
| Time | Temp. | Humidity | Pressure | Rain* | Wind** | Luminosity | Snow |
|---|---|---|---|---|---|---|---|
| 1777599608 | 21.67° C | 48% | 1010.5 hPa | 0 mm | - | - | - |
| 1777599307 | 22.22° C | 48% | 1010.6 hPa | 0 mm | - | - | - |
| 1777598709 | 23.33° C | 44% | 1010.6 hPa | 0 mm | - | - | - |
| 1777598408 | 23.33° C | 44% | 1010.6 hPa | 0 mm | - | - | - |
| 1777598111 | 23.89° C | 44% | 1010.5 hPa | 0 mm | - | - | - |
| 1777597807 | 23.89° C | 44% | 1010.5 hPa | 0 mm | - | - | - |
| 1777597508 | 24.44° C | 44% | 1010.5 hPa | 0 mm | - | - | - |
| 1777597207 | 24.44° C | 44% | 1010.5 hPa | 0 mm | - | - | - |
| 1777596908 | 24.44° C | 44% | 1010.4 hPa | 0 mm | - | - | - |
| 1777596608 | 25° C | 44% | 1010.4 hPa | 0 mm | - | - | - |
| 1777596308 | 25° C | 44% | 1010.5 hPa | 0 mm | - | - | - |
| 1777596010 | 25° C | 44% | 1010.4 hPa | 0 mm | - | - | - |
| 1777595708 | 25.56° C | 43% | 1010.4 hPa | 0 mm | - | - | - |
| 1777595407 | 26.11° C | 43% | 1010.4 hPa | 0 mm | - | - | - |
| 1777595108 | 26.11° C | 41% | 1010.4 hPa | 0 mm | - | - | - |
| 1777594824 | 26.11° C | 40% | 1010.4 hPa | 0 mm | - | - | - |
| 1777594508 | 26.67° C | 40% | 1010.4 hPa | 0 mm | - | - | - |
| 1777594208 | 26.67° C | 40% | 1010.4 hPa | 0 mm | - | - | - |
| 1777593908 | 26.67° C | 38% | 1010.5 hPa | 0 mm | - | - | - |
| 1777593608 | 26.67° C | 38% | 1010.5 hPa | 0 mm | - | - | - |
| 1777593308 | 26.67° C | 37% | 1010.5 hPa | 0 mm | - | - | - |
| 1777593007 | 26.67° C | 39% | 1010.5 hPa | 0 mm | - | - | - |
| 1777592707 | 27.22° C | 37% | 1010.5 hPa | 0 mm | - | - | - |
| 1777592410 | 27.22° C | 35% | 1010.5 hPa | 0 mm | - | - | - |
| 1777592108 | 27.22° C | 36% | 1010.6 hPa | 0 mm | - | - | - |
* Rain latest hour (hover to see other rain measurements)
** Current wind speed in m/s (hover to see current wind gust speed)